TIME,DELAY(SENSOR),PRES,OXYGEN,RAWTEMP,T(OPTODE),TCPHASE,FLUOR,BETA(BETA700),BETA(BETA412),BETA(BETA440),CDOM,C(CSC),ED(ED412.20),ED(ED444.00),ED(ED489.60),ED(ED554.30),LU(LU412.10),LU(LU443.90),LU(LU489.70),LU(LU554.70),COMP,TILTX,TILTY,CHECK
1339903978,5808,893.5700073242188000,38.8373908996582000,564.4517211914062000,4.3478469848632810,55.7338294982910160,56,100,100,79,83,15533,0,0,0,0,2147122404,2147779638,2147571328,2147572096,906,3,13,38713
1339907574,5809,981.8499755859375000,37.2388496398925800,571.1530761718750000,4.1397228240966800,56.0476493835449200,56,99,101,78,83,15532,0,0,0,0,2147124041,2147776740,2147569600,2147571017,400,3,13,55204
1339911174,5810,1003.4899902343750000,37.9988098144531250,572.1522216796875000,4.1086621284484860,55.9417304992675800,54,97,102,79,83,15515,0,0,0,0,2147120804,2147777060,2147570642,2147575414,3390,3,13,9012
1339914774,5810,1001.3499755859375000,38.5352516174316400,572.6768798828125000,4.0923461914062500,55.8617286682128900,56,99,100,78,83,15534,0,0,0,0,2147121901,2147780553,2147573952,2147572864,3540,3,13,1828
1339918374,5809,1001.3499755859375000,39.1206207275390600,573.6995849609375000,4.0605349540710450,55.7887992858886700,54,97,102,79,85,15529,0,0,0,0,2147118372,2147779044,2147572745,2147571776,187,3,13,35829
1339921974,5809,1001.7199707031250000,39.2393798828125000,574.1710815429688000,4.0458679199218750,55.7721786499023440,56,98,102,78,83,15532,0,0,0,0,2147121179,2147774537,2147571446,2147570514,3503,3,13,37134
1339925574,5810,998.2600097656250000,40.5322914123535160,575.6973876953125000,3.9983730316162110,55.6011886596679700,56,97,101,79,84,15532,0,0,0,0,2147122907,2147778112,2147575917,2147570057,3112,3,13,16589
1339929174,5810,999.5000000000000000,40.8383407592773440,576.3259277343750000,3.9788091182708740,55.5564193725585940,55,98,101,79,83,15533,0,0,0,0,2147123136,2147774765,2147573595,2147574125,3190,3,13,15642
1339932774,5809,1000.9400024414062000,40.7680091857910160,576.6046142578125000,3.9701349735260010,55.5699882507324200,55,98,101,78,84,15532,0,0,0,0,2147123245,2147776201,2147572105,2147573915,3559,2,13,7439
1339936374,5809,1005.1400146484375000,41.2500190734863300,576.6182250976562000,3.9697110652923584,55.4994316101074200,55,99,100,78,83,15515,0,0,0,0,2147120164,2147775360,2147573869,2147570614,535,3,13,29076
1339939974,5808,1004.6300048828125000,40.8322601318359400,576.3853759765625000,3.9769570827484130,55.5560684204101560,55,99,100,78,84,15533,0,0,0,0,2147122139,2147775177,2147574098,2147567625,239,3,13,31117
1339943574,5810,1004.5599975585938000,40.7472000122070300,576.5944213867188000,3.9704530239105225,55.5775108337402340,54,98,101,78,83,15529,0,0,0,0,2147119451,2147781001,2147577298,2147572086,2974,3,13,34760
1339947174,5808,1010.9099731445312000,41.0237503051757800,576.3886718750000000,3.9768559932708740,55.5334396362304700,54,99,102,79,84,15530,0,0,0,0,2147120585,2147781174,2147575570,2147570587,139,2,13,13811
1339950774,5811,1011.4400024414062000,40.6939201354980500,576.2631835937500000,3.9807620048522950,55.5771102905273440,55,98,100,78,84,15529,0,0,0,0,2147122523,2147778221,2147572352,2147569088,98,3,13,14939
1339954374,5808,1010.6099853515625000,40.3514709472656250,575.6036987304688000,4.0012888908386230,55.6249694824218750,56,99,101,79,83,15524,0,0,0,0,2147123483,2147776585,2147572452,2147566509,605,3,13,42827
1339957974,5811,1013.2600097656250000,40.1855392456054700,575.6755981445312000,3.9990520477294920,55.6499290466308600,55,97,103,78,82,15526,0,0,0,0,2147124973,2147779209,2147574921,2147568192,66,3,13,19972
1339961574,5808,1013.0100097656250000,39.8882598876953100,575.5261230468750000,4.0037059783935550,55.6936302185058600,56,98,102,79,84,15525,0,0,0,0,2147123565,2147779355,2147574637,2147573321,249,3,13,58436
1339965174,5810,1012.8200073242188000,40.3387107849121100,575.9677734375000000,3.9899580478668213,55.6272506713867200,55,97,101,78,84,15527,0,0,0,0,2147122614,2147778532,2147574838,2147570084,136,3,13,43948
1339968774,5811,1017.4600219726562000,40.4016189575195300,575.5277709960938000,4.0036511421203610,55.6133193969726560,55,98,101,78,83,15523,0,0,0,0,2147122916,2147776128,2147572562,2147570779,3459,2,13,32047
1339972374,5810,1013.7600097656250000,40.3378601074218750,575.9105224609375000,3.9917390346527100,55.6260795593261700,54,98,101,78,84,15525,0,0,0,0,2147123163,2147778596,2147573933,2147572708,3398,3,13,37589
1339975974,5812,1012.5599975585938000,39.7981910705566400,576.5498046875000000,3.9718399047851562,55.7134704589843750,55,98,101,78,83,15523,0,0,0,0,2147122898,2147776786,2147577307,2147573458,3358,3,13,52886
1339979574,5809,1014.7100219726562000,39.6997985839843750,575.9581298828125000,3.9902570247650146,55.7259597778320300,55,96,103,78,83,15527,0,0,0,0,2147122011,2147777024,2147572507,2147570962,131,3,13,35050
1339983174,5810,1014.9600219726562000,40.2428092956543000,576.3303833007812000,3.9786698818206787,55.6455497741699200,55,97,101,78,84,15525,0,0,0,0,2147122998,2147778349,2147573275,2147569581,222,3,13,14606
1339986774,5811,1017.1799926757812000,40.5466384887695300,575.8762207031250000,3.9928069114685060,55.5943717956543000,54,98,101,77,83,15523,0,0,0,0,2147124233,2147778386,2147577334,2147571913,3264,2,13,1808
1339990374,5810,1015.5800170898438000,40.2745704650878900,576.0051879882812000,3.9887909889221190,55.6355895996093750,54,105,103,78,83,15525,0,0,0,0,2147122057,2147778468,2147576027,2147570989,79,3,13,62098
1339993974,5809,1016.7199707031250000,39.3298416137695300,576.0156860351562000,3.9884641170501710,55.7759208679199200,56,99,100,78,83,15523,0,0,0,0,2147121974,2147778002,2147577627,2147568813,3538,3,13,36904
1339997574,5811,1017.5900268554688000,40.3768196105957000,576.6273803710938000,3.9694230556488037,55.6313209533691400,55,98,100,78,84,15524,0,0,0,0,2147121819,2147779556,2147569755,2147571291,18,3,13,24917
1340001174,5812,1016.7299804687500000,39.8903999328613300,576.2728271484375000,3.9804608821868896,55.6976699829101560,55,99,100,77,84,15519,0,0,0,0,2147122486,2147781321,2147573924,2147570221,91,3,13,10083
1340004774,5811,1015.8200073242188000,40.4572601318359400,576.2813720703125000,3.9801959991455080,55.6170997619628900,55,97,102,78,83,15516,0,0,0,0,2147120969,2147776027,2147571254,2147570541,88,3,13,10681
1340008374,5809,1016.0999755859375000,39.9525909423828100,576.3063964843750000,3.9794158935546875,55.6921195983886700,56,98,100,77,86,15520,0,0,0,0,2147122093,2147777142,2147575561,2147570806,348,3,13,18551
1340011974,5809,1018.2999877929688000,39.6789894104003900,576.3165893554688000,3.9790990352630615,55.7301216125488300,55,98,103,78,84,15515,0,0,0,0,2147122102,2147771574,2147576786,2147568832,188,2,13,58580
1340015574,5811,1017.5499877929688000,41.1710090637207000,577.7991943359375000,3.9329380989074707,55.5295600891113300,54,98,101,78,83,15517,0,0,0,0,2147125010,2147774610,2147575862,2147567469,3449,3,13,41359
1340019174,5811,1015.9600219726562000,40.0644416809082000,576.9370117187500000,3.9597849845886230,55.6816711425781250,56,98,117,78,83,15520,0,0,0,0,2147123794,2147777005,2147577444,2147564964,451,3,13,36502
1340022774,5807,1016.2700195312500000,40.0319900512695300,576.8568725585938000,3.9622759819030760,55.6824684143066400,55,96,100,78,82,15516,0,0,0,0,2147119506,2147774080,2147571702,2147572498,362,3,13,8288
1340026374,5809,1020.5399780273438000,40.8974800109863300,576.1514282226562000,3.9842429161071777,55.5509605407714840,56,97,101,78,84,15517,0,0,0,0,2147125083,2147775433,2147578075,2147571538,3368,2,13,13165
1340029974,5809,1020.6799926757812000,39.5693206787109400,576.4379272460938000,3.9753251075744630,55.7513809204101560,55,99,101,77,84,15520,0,0,0,0,2147122852,2147778614,2147575314,2147569371,286,3,13,31062
1340033574,5810,1024.7199707031250000,40.4525299072265600,576.6384277343750000,3.9690799713134766,55.6189994812011700,55,97,100,78,84,15515,0,0,0,0,2147120182,2147772480,2147576228,2147571062,305,3,13,61418
1340037174,5809,1024.2800292968750000,40.4446296691894500,575.5764160156250000,4.0021400451660160,55.6073608398437500,55,99,102,78,84,15513,0,0,0,0,2147122075,2147773659,2147571465,2147572141,262,3,13,62411
1340040774,5811,1020.2999877929688000,40.5813903808593750,575.9580078125000000,3.9902610778808594,55.5971717834472660,56,97,101,78,84,15515,0,0,0,0,2147118875,2147770230,2147573842,2147569462,3533,3,13,56112
1340044374,5807,1020.2700195312500000,39.8356513977050800,576.5698852539062000,3.9712119102478027,55.7127799987793000,55,99,102,78,83,15518,0,0,0,0,2147122614,2147774390,2147574720,2147571456,326,3,13,23457
1340047555,5809,1020.1300048828125000,40.4045600891113300,576.3682250976562000,3.9774930477142334,55.6225509643554700,56,97,101,79,84,15511,0,0,0,0,2147123894,2147775222,2147574427,2147568777,3272,3,13,17126
